Regional Weather Roundup
Issued by NWS

Home | Current Version | Previous Version | Text Only | Print | Product List | Glossary Off
Versions: 1 2 3 4 5 6 7 8 9 10 11 12 13 14 15 16 17 18 19 20 21 22 23 24 25 26 27 28 29 30 31 32 33 34 35 36 37 38 39 40 41 42 43 44 45 46 47 48 49 50

294
ASUS43 KDTX 262310
RWRMI
MICHIGAN HOURLY REGIONAL WEATHER ROUNDUP
NATIONAL WEATHER SERVICE DETROIT/PONTIAC MI
600 PM EST SUN FEB 26 2017

NOTE: "FAIR" INDICATES FEW OR NO CLOUDS BELOW 12,000 FEET WITH NO
SIGNIFICANT WEATHER AND/OR OBSTRUCTION TO VISIBILITY.

MIZ047>049-052>055-059>063-066>070-074>076-081>083-270000-
SOUTHEAST LOWER MICHIGAN

CITY           SKY/WX    TMP DP  RH WIND       PRES   REMARKS
ADRIAN         CLEAR     40  22  48 SW14G28   30.02R WCI  32
ALMA           CLEAR     40  18  40 SW17G24   29.91R WCI  32
ANN ARBOR      CLEAR     40  21  46 S14G21    29.99R WCI  32
BAD AXE        CLOUDY    37  20  50 SW14G20   29.90S WCI  29
CARO           CLOUDY    39  21  50 SW13G21   29.91R WCI  31
DETROIT CITY   CLEAR     41  18  39 SW16G26   30.00R
DETROIT        PTCLDY    41  20  43 SW26G33   30.02R
FLINT          CLOUDY    40  20  44 SW13G25   29.95R WCI  32
GROSSE ILE     CLEAR     41  20  43 SW15G24   30.01R
HILLSDALE      CLEAR     37  21  52 SW16G26   29.98S WCI  28
HOWELL         PTCLDY    40  18  41 SW14G24   29.95R WCI  32

CITY           SKY/WX    TMP DP  RH WIND       PRES   REMARKS
JACKSON        PTCLDY    41  20  43 SW20G30   29.97R
LAMBERTVILLE   CLEAR     43  19  38 SW15G22   30.04R
LANSING        CLOUDY    41  20  43 SW15      29.94R
LAPEER         CLOUDY    39  20  46 SW10G18   29.95R WCI  32
MASON          PTCLDY    40  24  52 SW12G21   29.95R WCI  33
MONROE         CLEAR     41  24  49 SW15G24   30.02R
MT. CLEMENS    PTCLDY    39  22  51 S15G23    29.95S WCI  30
PONTIAC        PTCLDY    39  18  42 SW15G25   29.94R WCI  31
PORT HOPE        N/A     38  21  50 SW12G26   29.88R WCI  30
PORT HURON     CLEAR     37  23  56 S10G24    29.97R WCI  30
TRI CITIES     CLOUDY    39  23  52 SW21      29.90R WCI  29
MIDLAND        CLOUDY    39  20  45 SW8       29.89R WCI  34
TROY           CLEAR     41  16  36 SW23      29.99S
SAGINAW HB     PTCLDY    39  21  48 SW16G24   29.91R WCI  30
$$
MIZ043>046-050>051-056>058-064>065-071>073-077>080-270000-
SOUTHWEST LOWER MICHIGAN

CITY           SKY/WX    TMP DP  RH WIND       PRES   REMARKS
BATTLE CREEK   MOCLDY    43  21  41 SW20G26   29.96R
BENTON HARBOR  CLEAR     44  20  38 SW17G25   29.97R
BIG RAPIDS     PTCLDY    37  24  57 SW20G26   29.86R WCI  27
COLDWATER      CLOUDY    42  20  41 SW18G25   29.99R
FREMONT        FAIR      39  24  55 SW16G24   29.89R WCI  30
HOLLAND        CLEAR     41  25  53 SW17      29.94R
GRAND RAPIDS   PTCLDY    41  20  43 SW18G28   29.92R
IONIA          FAIR      41  19  41 SW22G30   29.91R
KALAMAZOO      MOCLDY    44  19  36 SW12      29.96R
LUDINGTON      CLEAR     37  31  78 SW12G20   29.86R WCI  29
MARSHALL       PTCLDY    41  21  44 SW16G22   29.96R
MOUNT PLEASANT CLOUDY    39  23  51 SW18G25   29.88R WCI  30
MUSKEGON       CLEAR     40  29  64 SW15G25   29.92R WCI  32
SOUTH HAVEN    CLEAR     43  22  42 SW18G25   29.96R
$$
MIZ016>042-270000-
NORTHERN LOWER MICHIGAN

CITY           SKY/WX    TMP DP  RH WIND       PRES   REMARKS
ALPENA         MOCLDY    35  24  64 SW15G28   29.79S WCI  25
BEAVER ISLAND  CLEAR     33  27  79 SW16G26   29.74R WCI  23
BELLAIRE       CLOUDY    36  26  68 SW8       29.80R WCI  29
CADILLAC       CLEAR     33  24  67 SW15      29.81R WCI  23
CHARLEVOIX     MOCLDY    35  26  69 SW20G29   29.80R WCI  24
FRANKFORT      CLEAR     37  30  76 SW9G17    29.82R WCI  30
GAYLORD        CLOUDY    33  23  66 SW14G25   29.76R WCI  23
GRAYLING       PTCLDY    33  25  70 SW9G18    29.80R WCI  26
HARBOR SPRINGS CLOUDY    33  27  77 SW13G20   29.76R WCI  24
HOUGHTON LAKE  CLEAR     34  23  64 SW16G23   29.82S WCI  24
MANISTEE       CLEAR     38  27  64 SW12G23   29.84R WCI  30
OSCODA         CLOUDY    36  24  61 SW13      29.85S WCI  27
PELLSTON       CLOUDY    34  24  67 SW13G22   29.76R WCI  25
ROGERS CITY    PTCLDY    33  26  76 SW15G23   29.77R WCI  23
TRAVERSE CITY  MOCLDY    37  25  61 SW12G21   29.80R WCI  29
$$
MIZ007>008-015-270000-
EASTERN UPPER MICHIGAN

CITY           SKY/WX    TMP DP  RH WIND       PRES   REMARKS
KINROSS        MIX PCPN  31  27  85 SW9       29.71S WCI  23
MACKINAC ISLAN CLOUDY    32  27  83 SW16G26   29.73R WCI  21
NEWBERRY       CLOUDY    30  24  79 SW12      29.70R WCI  20
S. S. MARIE    CLOUDY    32  27  81 SW13      29.70R WCI  22
MUNISING         N/A     35  19  52 W23G32    29.71R WCI  23
$$
MIZ004>006-011>014-085-270000-
CENTRAL UPPER MICHIGAN

CITY           SKY/WX    TMP DP  RH WIND       PRES   REMARKS
MANISTIQUE     LGT SNOW  30  29  96 SW6       29.73R WCI  24
ESCANABA       MOCLDY    34  24  67 W10       29.74R WCI  26
MENOMINEE      CLOUDY    38  21  50 W10       29.78R WCI  31
SAWYER-GWINN   MOCLDY    28  23  80 W18G31    29.71R BLWGSNOWWCI  16
$$
MIZ001>003-009>011-084-270000-
WESTERN UPPER MICHIGAN

CITY           SKY/WX    TMP DP  RH WIND       PRES   REMARKS
IRON MOUNTAIN  LGT SNOW  30  21  69 W16G28    29.74R WCI  19
HOUGHTON       MOCLDY    22  11  62 W22G32    29.72R HAZE    WCI   6
COPPER HARBOR    N/A     25  16  68 N21G29    29.71R WCI  11
IRONWOOD       CLEAR     23   9  55 NW14      29.80R WCI  11
$$

ABBREVIATIONS USED IN REMARKS
   TC - TEMPERATURE IN CELSIUS
  WCI - WIND CHILL INDEX
   HX - HEAT INDEX
  VSB - VISIBILITY





USA.gov is the U.S. government's official web portal to all federal, state and local government web resources and services.